Wichita, KS

7:33 AM CST on February 24, 2017 (GMT -0600)
Col Jabara

Weather History for KAAO - October, 2011

Change the Weather History Date:

Sunday, October 23, 2011

  Actual Average (KIAB) Record (KIAB)
Temperature  
Mean Temperature 62 °F -  
Max Temperature 81 °F 65 °F 87 °F (2012)
Min Temperature 44 °F 46 °F 30 °F (2006)
Degree Days  
Heating Degree Days 3    
Growing Degree Days 12 (Base 50)    
Moisture  
Dew Point 46 °F    
Average Humidity 61    
Maximum Humidity 93    
Minimum Humidity 24    
Precipitation  
Precipitation 0.00 in - - ()
Sea Level Pressure  
Sea Level Pressure 30.01 in    
Wind  
Wind Speed 4 mph (WSW)    
Max Wind Speed 9 mph    
Max Gust Speed -    
Visibility 10 miles    
Events      
Averages and records for this station are not official NWS values.
T = Trace of Precipitation, MM = Missing Value Source: NWS Daily Summary

Daily Weather History Graph

Daily Weather History Graph

Search for Another Location

Airport or City:

Trip Planner

Search our weather history database for the weather conditions in past years. The results will help you decide how hot, cold, wet, or windy it might be!

Date:

Astronomy

Oct. 23, 2011 Rise Set
Actual Time 7:44 AM CDT 6:41 PM CDT
Civil Twilight 7:18 AM CDT 7:07 PM CDT
Nautical Twilight 6:47 AM CDT 7:38 PM CDT
Astronomical Twilight 6:16 AM CDT 8:08 PM CDT
Moon 3:56 AM CDT (10/23) 4:29 PM CDT (10/23)
Length of Visible Light 11h 49m
Length of Day
10h 56m
Waning Crescent, 14% of the Moon is Illuminated
Oct 23
Waning Crescent
Oct 26
New
Nov 2
First Quarter
Nov 10
Full
Nov 18
Last Quarter

Hourly Weather History & Observations

Time (CDT) Temp. Windchill Dew Point Humidity Pressure Visibility Wind Dir Wind Speed Gust Speed Precip Events Conditions
12:54 AM 50.0 °F - 44.1 °F 80% 30.01 in 10.0 mi Calm Calm - N/A   Clear
1:54 AM 51.1 °F - 44.1 °F 77% 30.00 in 10.0 mi North 4.6 mph - N/A   Clear
2:54 AM 51.1 °F - 45.0 °F 80% 30.00 in 10.0 mi North 4.6 mph - N/A   Clear
3:54 AM 44.1 °F - 42.1 °F 93% 30.00 in 10.0 mi Calm Calm - N/A   Clear
4:54 AM 46.9 °F - 43.0 °F 86% 29.99 in 10.0 mi South 4.6 mph - N/A   Clear
5:54 AM 44.1 °F - 42.1 °F 93% 30.01 in 10.0 mi Calm Calm - N/A   Clear
6:54 AM 45.0 °F - 42.1 °F 90% 30.02 in 10.0 mi Calm Calm - N/A   Clear
7:54 AM 46.0 °F 44.8 °F 43.0 °F 89% 30.02 in 6.0 mi NW 3.5 mph - N/A   Clear
9:54 AM 59.0 °F - 48.9 °F 69% 30.04 in 10.0 mi Calm Calm - N/A   Clear
10:54 AM 64.0 °F - 50.0 °F 60% 30.05 in 10.0 mi West 8.1 mph - N/A   Clear
11:54 AM 68.0 °F - 51.1 °F 55% 30.04 in 10.0 mi West 3.5 mph - N/A   Clear
12:54 PM 72.0 °F - 50.0 °F 46% 30.03 in 10.0 mi SW 4.6 mph - N/A   Clear
1:54 PM 75.9 °F - 48.9 °F 38% 29.99 in 10.0 mi SSW 8.1 mph - N/A   Clear
2:54 PM 78.1 °F - 46.0 °F 32% 29.97 in 10.0 mi WSW 9.2 mph - N/A   Clear
3:54 PM 80.1 °F - 41.0 °F 25% 29.97 in 10.0 mi West 6.9 mph - N/A   Clear
4:54 PM 80.1 °F - 39.9 °F 24% 29.95 in 10.0 mi SW 5.8 mph - N/A   Clear
5:54 PM 77.0 °F - 41.0 °F 28% 29.96 in 10.0 mi SSW 5.8 mph - N/A   Clear
6:54 PM 66.9 °F - 44.1 °F 44% 29.98 in 10.0 mi South 6.9 mph - N/A   Clear
7:54 PM 64.9 °F - 45.0 °F 48% 29.99 in 10.0 mi South 8.1 mph - N/A   Clear
8:54 PM 66.0 °F - 48.9 °F 54% 30.02 in 10.0 mi West 8.1 mph - N/A   Clear
9:54 PM 63.0 °F - 48.9 °F 60% 30.04 in 10.0 mi SW 8.1 mph - N/A   Clear
10:54 PM 62.1 °F - 50.0 °F 65% 30.06 in 9.0 mi SW 6.9 mph - N/A   Clear
11:54 PM 59.0 °F - 50.0 °F 72% 30.06 in 10.0 mi Calm Calm - N/A   Clear